Orbital Elements at Epoch 2459200.5 (2020-Dec-17.0) TDB
Reference: JPL 18 (heliocentric ecliptic J2000)
Element | Value | Uncertainty (1-sigma) | Units |
e | .3354669334530516 | 4.4137e-08 | |
a | 3.072275765097206 | 2.1253e-08 | au |
q | 2.041628835457919 | 1.4168e-07 | au |
i | 20.77220573844473 | 4.7927e-06 | deg |
node | 131.6925693067388 | 1.7734e-05 | deg |
peri | 179.9441033676626 | 2.0059e-05 | deg |
M | 345.5089732097164 | 1.2623e-05 | deg |
tp | 2459279.674508862559 (2021-Mar-06.17450886) | 6.9523e-05 | TDB |
period | 1966.929162647915 5.39 | 2.041e-05 5.588e-08 | d yr |
n | .1830264184579792 | 1.8992e-09 | deg/d |
Q | 4.102922694736494 | 2.8383e-08 | au |
|
| | Orbit Determination Parameters
Additional Information
|